This is the latest recevied weather packets stored in our database for station/object KJ6APE. If no packets are shown the sender has not sent any weather packets the latest 10 day(s).
| Time | Temp. | Humidity | Pressure | Rain* | Wind** | Luminosity | Snow |
|---|---|---|---|---|---|---|---|
| 1778206002 | 21.67° C | 56% | 1016 hPa | 0 mm | - | 83 W/m² | - |
| 1778205700 | 21.67° C | 54% | 1016.1 hPa | 0 mm | - | 92 W/m² | - |
| 1778205397 | 22.22° C | 54% | 1016 hPa | 0 mm | - | 103 W/m² | - |
| 1778205094 | 22.78° C | 53% | 1016 hPa | 0 mm | - | 125 W/m² | - |
| 1778204790 | 22.78° C | 53% | 1016.1 hPa | 0 mm | - | 150 W/m² | - |
| 1778204486 | 23.33° C | 52% | 1016 hPa | 0 mm | - | 167 W/m² | - |
| 1778204183 | 23.89° C | 50% | 1016 hPa | 0 mm | - | 199 W/m² | - |
| 1778203880 | 23.89° C | 49% | 1015.9 hPa | 0 mm | - | 220 W/m² | - |
| 1778203577 | 23.89° C | 50% | 1015.9 hPa | 0 mm | - | 240 W/m² | - |
| 1778203274 | 24.44° C | 48% | 1015.9 hPa | 0 mm | - | 258 W/m² | - |
| 1778202973 | 24.44° C | 48% | 1016.1 hPa | 0 mm | - | 278 W/m² | - |
| 1778202669 | 25° C | 47% | 1016.1 hPa | 0 mm | - | 299 W/m² | - |
| 1778202366 | 25° C | 47% | 1015.8 hPa | 0 mm | - | 322 W/m² | - |
| 1778202064 | 25.56° C | 45% | 1015.8 hPa | 0 mm | - | 343 W/m² | - |
| 1778201760 | 25.56° C | 46% | 1015.6 hPa | 0 mm | - | 366 W/m² | - |
| 1778201457 | 25° C | 47% | 1015.9 hPa | 0 mm | - | 387 W/m² | - |
| 1778201153 | 26.11° C | 45% | 1015.9 hPa | 0 mm | - | 409 W/m² | - |
| 1778200850 | 26.11° C | 45% | 1015.8 hPa | 0 mm | - | 430 W/m² | - |
| 1778200546 | 26.11° C | 46% | 1015.9 hPa | 0 mm | - | 449 W/m² | - |
| 1778200244 | 26.11° C | 44% | 1015.9 hPa | 0 mm | - | 472 W/m² | - |
| 1778199940 | 26.67° C | 45% | 1015.6 hPa | 0 mm | - | 492 W/m² | - |
| 1778199637 | 26.11° C | 45% | 1015.7 hPa | 0 mm | - | 511 W/m² | - |
| 1778199333 | 26.67° C | 45% | 1015.7 hPa | 0 mm | - | 531 W/m² | - |
| 1778199029 | 26.67° C | 44% | 1015.6 hPa | 0 mm | - | 551 W/m² | - |
| 1778198725 | 27.22° C | 43% | 1015.7 hPa | 0 mm | - | 570 W/m² | - |
* Rain latest hour (hover to see other rain measurements)
** Current wind speed in m/s (hover to see current wind gust speed)